Погода в Долматовском

Россия / Ивановская область     57°29′50″N   42°19′57″E
темп.,
°C
ветер,
м/с
пор.,
м/с
влажн.,
%
обл.,
%
осадки,
мм/ч
давл.,
гПа
погр.,
м
21 апреля, ср
ср2100:00+4в51458100 0.0 1019615
03:00+4в61563100 0.3 1016824
06:00+1вюв81997100 4.2 1012975
09:00+2юв91793100 7.0 1010980
12:00+5юв91787100 0.0 10081057
15:00+6юв81686100 0.3 10081043
18:00+5ю4895100 1.4 1009725
21:00+4ююз3793100 1.8 1011408
22 апреля, чт
чт2200:00+3ююз3892100 0.0 1011361
03:00+3ююз3893100 0.0 1013337
06:00+3ю3995100 0.0 1014379
09:00+5ююз4793100 0.1 1016657
12:00+5ююз4890100 0.1 1017712
15:00+8ююз5878100 0.2 10171059
18:00+8ю488115 0.0 1018594
21:00+6ююв3890100 0.0 1019189
23 апреля, пт
пт2300:00+6ю3109096 0.0 1018305
03:00+3ююв399562 0.0 1018181
06:00+6ююв41388100 0.0 1018376
09:00+9ю5128195 0.1 1018573
12:00+13ю696793 0.3 1018940
15:00+15ююв595765 0.9 10171585
18:00+13ююв41069100 0.9 1017474
21:00+9юв4128062 0.9 1017262
24 апреля, сб
сб2400:00+8юв3118396 0.0 1016242
03:00+8юв31084100 0.0 1015240
06:00+8вюв4128470 0.0 1014366
09:00+11юв7127539 0.4 1012856
12:00+13юв81265100 1.3 10111572
15:00+13юв6115948 1.6 10081599
18:00+12вюв7116093 0.1 10061218
21:00+9вюв71475100 0.1 1004888
25 апреля, вс
вс2500:00+8вюв71484100 0.4 10011244
03:00+4ю5895100 4.5 1002899
06:00+3юз61095100 0.5 1003841
09:00+4юз6118588 0.9 10041088
12:00+7юз6860100 1.1 10051835
15:00+7юз5865100 2.8 10061419
18:00+5юз69746 1.0 10071097
21:00+2ююз39865 1.0 1009280